Weather History for Puerto Barrios, Guatemala

Change the Weather History Date:

Thursday, June 13, 2013

  Actual Average Record
Temperature  
Mean Temperature 82 °F -  
Max Temperature 90 °F 87 °F 93 °F (1997)
Min Temperature 74 °F 74 °F 66 °F (2003)
Cooling Degree Days 17    
Growing Degree Days 32 (Base 50)    
Moisture  
Dew Point 77 °F    
Average Humidity 89    
Maximum Humidity 100    
Minimum Humidity 69    
Precipitation  
Precipitation 0.00 in - - ()
Sea Level Pressure  
Sea Level Pressure 29.93 in    
Wind  
Wind Speed 3 mph ()    
Max Wind Speed 12 mph    
Max Gust Speed -    
Visibility 6.2 miles    
Events Thunderstorm    
Averages and records for this station are not official NWS values.
T = Trace of Precipitation, MM = Missing Value Source: Averaged Metar Reports

Daily Weather History Graph

Daily Weather History Graph

Search for Another Location

Airport:

Trip Planner

Search our weather history database for the weather conditions in past years. The results will help you decide how hot, cold, wet, or windy it might be!

Date:

Astronomy

Jun. 13, 2013 Rise Set
Actual Time 5:22 AM CST 6:26 PM CST
Civil Twilight 4:59 AM CST 6:49 PM CST
Nautical Twilight 4:31 AM CST 7:18 PM CST
Astronomical Twilight 4:02 AM CST 7:46 PM CST
Moon 9:26 AM CST (6/13) 10:10 PM CST (6/13)
Length of Visible Light 13h 50m
Length of Day
13h 03m
Waxing Crescent, 22% of the Moon is Illuminated
Jun 13
Waxing Crescent
Jun 16
First Quarter
Jun 23
Full
Jun 29
Last Quarter
Jul 8
New

Hourly Weather History & Observations

Time (CST) Temp. Heat Index Dew Point Humidity Pressure Visibility Wind Dir Wind Speed Gust Speed Precip Events Conditions
12:00 AM 75.2 °F - 75.2 °F 100% 29.98 in 6.2 mi Calm Calm - N/A Thunderstorm Thunderstorm
1:00 AM 75.2 °F - 75.2 °F 100% 29.95 in 6.2 mi Calm Calm - N/A   Mostly Cloudy
2:00 AM 77.0 °F - 75.2 °F 94% 29.92 in 6.2 mi Calm Calm - N/A   Mostly Cloudy
3:00 AM 77.0 °F - 75.2 °F 94% 29.92 in 6.2 mi Calm Calm - N/A   Mostly Cloudy
4:00 AM 75.2 °F - 75.2 °F 100% 29.92 in 6.2 mi Calm Calm - N/A   Mostly Cloudy
5:00 AM 75.2 °F - 73.4 °F 94% 29.92 in 6.2 mi Calm Calm - N/A   Mostly Cloudy
6:00 AM 76 °F - 74 °F 94% 29.94 in 25 mi Calm Calm - -   Partly Cloudy
6:00 AM 75.2 °F - 75.2 °F 100% 29.92 in 6.2 mi Calm Calm - N/A   Scattered Clouds
7:00 AM 77.0 °F - 77.0 °F 100% 29.95 in 6.2 mi Calm Calm - N/A   Scattered Clouds
8:00 AM 82.4 °F 90.9 °F 77.0 °F 84% 29.95 in 6.2 mi West 4.6 mph - N/A   Scattered Clouds
9:00 AM 84.2 °F 96.1 °F 78.8 °F 84% 29.95 in 6.2 mi West 6.9 mph - N/A   Scattered Clouds
10:00 AM 84.2 °F 96.1 °F 78.8 °F 84% 29.95 in 6.2 mi North 6.9 mph - N/A   Mostly Cloudy
11:00 AM 86.0 °F 99.3 °F 78.8 °F 79% 29.95 in 6.2 mi North 9.2 mph - N/A   Scattered Clouds
12:00 PM 88 °F - 79 °F 69% 29.96 in 25 mi North 11.5 mph - -   Partly Cloudy
12:00 PM 87.8 °F 102.5 °F 78.8 °F 75% 29.95 in 6.2 mi North 11.5 mph - N/A   Scattered Clouds
1:00 PM 86.0 °F 101.9 °F 80.6 °F 84% 29.92 in - North 11.5 mph - N/A   Scattered Clouds
2:00 PM 87.8 °F 104.9 °F 80.6 °F 79% 29.92 in 6.2 mi North 11.5 mph - N/A   Scattered Clouds
3:00 PM 86.0 °F 99.3 °F 78.8 °F 79% 29.89 in 6.2 mi NNE 11.5 mph - N/A Thunderstorm Thunderstorm
4:00 PM 84.2 °F 96.1 °F 78.8 °F 84% 29.89 in 6.2 mi ENE 11.5 mph - N/A   Mostly Cloudy
5:00 PM 84.2 °F 96.1 °F 78.8 °F 84% 29.89 in 6.2 mi ENE 6.9 mph - N/A   Mostly Cloudy
6:00 PM 83 °F - 78 °F 80% 29.92 in 25 mi ENE 6.9 mph - - Thunderstorm Thunderstorm
6:00 PM 82.4 °F 92.4 °F 78.8 °F 89% 29.92 in 6.2 mi ENE 6.9 mph - N/A Thunderstorm Thunderstorm
7:00 PM 80.6 °F 88.1 °F 78.8 °F 94% 29.92 in 6.2 mi ENE 4.6 mph - N/A Thunderstorm Thunderstorm
8:00 PM 80.6 °F 88.1 °F 78.8 °F 94% 29.92 in 6.2 mi ENE 4.6 mph - N/A   Scattered Clouds
9:00 PM 80.6 °F 88.1 °F 78.8 °F 94% 29.95 in 6.2 mi ENE 4.6 mph - N/A   Scattered Clouds
10:00 PM 77.0 °F - 75.2 °F 94% 29.95 in 6.2 mi Calm Calm - N/A   Partly Cloudy
11:00 PM 77.0 °F - 75.2 °F 94% 29.95 in 6.2 mi Calm Calm - N/A   Partly Cloudy